Tracking 20093 objects as of 16-Dec-2019
HD Live streaming from Space Station
objects crossing your sky now

COSMOS 2251 DEB

Track COSMOS 2251 DEB now!
10-day predictions


NORAD ID: 40226
Int'l Code: 1993-036BVF
Perigee: 557.9 km
Apogee: 629.7 km
Inclination: 74.1 °
Period: 96.4 minutes
Semi major axis: 6964 km
RCS: Unknown
Launch date: June 16, 1993
Source: Commonwealth of Independent States (former USSR) (CIS)
Launch site: PLESETSK MISSILE AND SPACE COMPLEX (PKMTR)

Note: This is SATELLITE DEBRIS
aabbcc
Your satellite tracking list
Your tracking list is empty




NASA's NSSDC Master Catalog

Two Line Element Set (TLE):
1 40226U 93036BVF 19349.66922833 +.00002028 +00000-0 +19090-3 0  9994
2 40226 074.0743 335.8045 0051542 177.0178 303.2761 14.93616906284491
Source of the keplerian elements: AFSPC